Weather History for KPNE - February, 2012

Change the Weather History Date:

Wednesday, February 8, 2012

  Actual Average Record
Temperature  
Mean Temperature 34 °F -  
Max Temperature 37 °F 40 °F 61 °F (2009)
Min Temperature 30 °F 24 °F 14 °F (2007)
Degree Days  
Heating Degree Days 32    
Moisture  
Dew Point 27 °F    
Average Humidity 79    
Maximum Humidity 93    
Minimum Humidity 52    
Precipitation  
Precipitation 0.05 in - - ()
Sea Level Pressure  
Sea Level Pressure 30.20 in    
Wind  
Wind Speed 6 mph (NE)    
Max Wind Speed 9 mph    
Max Gust Speed -    
Visibility 5 miles    
Events Snow    
Averages and records for this station are not official NWS values.
T = Trace of Precipitation, MM = Missing Value Source: NWS Daily Summary

Daily Weather History Graph

Daily Weather History Graph

Search for Another Location

Airport or City:

Trip Planner

Search our weather history database for the weather conditions in past years. The results will help you decide how hot, cold, wet, or windy it might be!

Date:

Astronomy

Feb. 08, 2012 Rise Set
Actual Time 7:02 AM EST 5:26 PM EST
Civil Twilight 6:33 AM EST 5:55 PM EST
Nautical Twilight 6:01 AM EST 6:27 PM EST
Astronomical Twilight 5:30 AM EST 6:58 PM EST
Moon 6:43 PM EST (2/8) 7:03 AM EST (2/8)
Length of Visible Light 11h 21m
Length of Day
10h 24m
Full, 99% of the Moon is Illuminated
Feb 8
Full
Feb 14
Last Quarter
Feb 21
New
Feb 29
First Quarter
Mar 8
Full

Hourly Weather History & Observations

Time (EST) Temp. Windchill Dew Point Humidity Pressure Visibility Wind Dir Wind Speed Gust Speed Precip Events Conditions
12:54 AM 36.0 °F 30.3 °F 25.0 °F 64% 30.27 in 10.0 mi NNE 6.9 mph - N/A   Clear
1:54 AM 35.1 °F 28.6 °F 25.0 °F 67% 30.27 in 10.0 mi NNE 8.1 mph - N/A   Clear
2:54 AM 33.1 °F 28.7 °F 24.1 °F 70% 30.28 in 10.0 mi NE 4.6 mph - N/A   Clear
3:54 AM 33.1 °F 28.7 °F 21.9 °F 64% 30.28 in 10.0 mi NE 4.6 mph - N/A   Clear
4:54 AM 30.9 °F 25.2 °F 23.0 °F 72% 30.29 in 10.0 mi NNE 5.8 mph - N/A   Clear
5:54 AM 32.0 °F 26.4 °F 21.9 °F 66% 30.30 in 10.0 mi NNE 5.8 mph - N/A   Clear
6:54 AM 32.0 °F 26.4 °F 21.0 °F 64% 30.32 in 10.0 mi NNE 5.8 mph - N/A   Clear
7:54 AM 32.0 °F 25.6 °F 21.0 °F 64% 30.32 in 10.0 mi NE 6.9 mph - N/A   Clear
8:54 AM 34.0 °F 27.2 °F 21.0 °F 59% 30.32 in 10.0 mi NE 8.1 mph - N/A   Clear
9:54 AM 36.0 °F 31.1 °F 21.0 °F 55% 30.31 in 10.0 mi East 5.8 mph - N/A   Clear
10:54 AM 37.0 °F 31.6 °F 21.0 °F 52% 30.30 in 10.0 mi East 6.9 mph - N/A   Clear
11:54 AM 37.0 °F 33.3 °F 21.0 °F 52% 30.27 in 10.0 mi East 4.6 mph - N/A   Mostly Cloudy
12:54 PM 37.9 °F 33.5 °F 21.9 °F 53% 30.25 in 10.0 mi NE 5.8 mph - N/A   Mostly Cloudy
1:54 PM 37.9 °F 33.5 °F 21.9 °F 53% 30.22 in 10.0 mi ENE 5.8 mph - N/A   Overcast
2:54 PM 37.0 °F 33.3 °F 24.1 °F 59% 30.21 in 6.0 mi ENE 4.6 mph - 0.00 in Snow Light Snow
3:03 PM 35.6 °F 31.7 °F 26.6 °F 70% 30.21 in 3.0 mi NE 4.6 mph - 0.00 in Snow Light Snow
3:09 PM 35.6 °F 31.7 °F 26.6 °F 70% 30.20 in 1.8 mi East 4.6 mph - 0.00 in Snow Light Snow
3:17 PM 35.6 °F 31.7 °F 28.4 °F 75% 30.21 in 3.0 mi ENE 4.6 mph - 0.00 in Snow Light Snow
3:41 PM 35.6 °F 28.6 °F 28.4 °F 75% 30.20 in 1.8 mi NE 9.2 mph - 0.00 in Snow Light Snow
3:49 PM 33.8 °F 27.7 °F 28.4 °F 81% 30.20 in 2.5 mi NE 6.9 mph - 0.00 in Snow Light Snow
3:54 PM 34.0 °F 28.0 °F 28.9 °F 82% 30.20 in 4.0 mi NNE 6.9 mph - 0.00 in Snow Light Snow
4:11 PM 33.8 °F 27.0 °F 28.4 °F 81% 30.19 in 2.5 mi NNE 8.1 mph - 0.00 in Snow Light Snow
4:20 PM 33.8 °F 27.0 °F 28.4 °F 81% 30.19 in 1.5 mi NNE 8.1 mph - 0.00 in Snow Light Snow
4:49 PM 33.8 °F 27.7 °F 30.2 °F 87% 30.18 in 1.2 mi NE 6.9 mph - 0.00 in Snow Light Snow
4:54 PM 32.0 °F 24.2 °F 30.0 °F 92% 30.18 in 1.2 mi NNE 9.2 mph - 0.00 in Snow Light Snow
5:05 PM 32.0 °F 24.8 °F 30.2 °F 93% 30.18 in 1.5 mi NNE 8.1 mph - 0.00 in Snow Light Snow
5:27 PM 32.0 °F 24.2 °F 28.4 °F 87% 30.17 in 2.0 mi NNE 9.2 mph - 0.00 in Snow Light Snow
5:43 PM 32.0 °F 25.6 °F 30.2 °F 93% 30.17 in 1.8 mi NNE 6.9 mph - 0.01 in Snow Light Snow
5:54 PM 32.0 °F 24.8 °F 28.9 °F 88% 30.17 in 1.2 mi NNE 8.1 mph - 0.01 in Snow Light Snow
6:25 PM 32.0 °F 26.4 °F 28.4 °F 87% 30.16 in 1.8 mi NE 5.8 mph - 0.01 in Snow Light Snow
6:46 PM 32.0 °F 26.4 °F 30.2 °F 93% 30.16 in 1.8 mi NE 5.8 mph - 0.01 in Snow Light Snow
6:54 PM 32.0 °F 26.4 °F 30.0 °F 92% 30.16 in 1.8 mi NE 5.8 mph - 0.01 in Snow Light Snow
7:05 PM 32.0 °F 27.5 °F 30.2 °F 93% 30.15 in 2.0 mi NE 4.6 mph - 0.00 in Snow Light Snow
7:11 PM 32.0 °F 27.5 °F 30.2 °F 93% 30.16 in 1.8 mi NE 4.6 mph - 0.00 in Snow Light Snow
7:47 PM 32.0 °F 27.5 °F 30.2 °F 93% 30.15 in 2.0 mi NNE 4.6 mph - 0.01 in Snow Light Snow
7:54 PM 32.0 °F 28.7 °F 30.0 °F 92% 30.16 in 2.0 mi NE 3.5 mph - 0.01 in Snow Light Snow
8:11 PM 32.0 °F 27.5 °F 30.2 °F 93% 30.15 in 1.5 mi NE 4.6 mph - 0.00 in Snow Light Snow
8:47 PM 32.0 °F 27.5 °F 30.2 °F 93% 30.15 in 2.0 mi NE 4.6 mph - 0.01 in Snow Light Snow
8:54 PM 32.0 °F 27.5 °F 30.0 °F 92% 30.15 in 2.5 mi NE 4.6 mph - 0.01 in Snow Light Snow
9:29 PM 32.0 °F 28.7 °F 30.2 °F 93% 30.15 in 1.8 mi NNE 3.5 mph - 0.00 in Snow Light Snow
9:36 PM 32.0 °F 28.7 °F 30.2 °F 93% 30.14 in 2.0 mi NNE 3.5 mph - 0.00 in Snow Light Snow
9:54 PM 32.0 °F 27.5 °F 28.9 °F 88% 30.15 in 1.8 mi NNE 4.6 mph - 0.00 in Snow Light Snow
10:13 PM 32.0 °F 28.7 °F 30.2 °F 93% 30.15 in 2.0 mi NNW 3.5 mph - 0.01 in Snow Light Snow
10:29 PM 32.0 °F 25.6 °F 28.4 °F 87% 30.15 in 4.0 mi NNW 6.9 mph - 0.01 in Snow Light Snow
10:54 PM 32.0 °F 26.4 °F 28.9 °F 88% 30.14 in 5.0 mi NNW 5.8 mph - 0.01 in   Overcast
11:50 PM 30.2 °F 23.4 °F 28.4 °F 93% 30.14 in 5.0 mi NNW 6.9 mph - 0.00 in Snow Light Snow
11:54 PM 30.9 °F 25.2 °F 28.9 °F 92% 30.14 in 4.0 mi NNW 5.8 mph - 0.00 in Snow Light Snow